カタログに戻る

OPS 4682 DEB

運用中PO
NORAD 38421·DEBRIS·🇺🇸 United States

打ち上げ Apr 3, 1965 から Vandenberg Space Force Base

Loading…

次のパス (今後24時間)

TLE

最新Source: Space-Track

元期: Sep 13, 2026, 00:45 UTC

1 38421U 65027EA  26256.03182306 -.00000175  00000-0 -52567-3 0  9995
2 38421  90.2677  11.1816 0034832  60.8802 299.5805 13.10007218680121

AllMySatでOPS 4682 DEBをリアルタイム追跡

Download on the App Store